Hourly Data Report for October 13, 2014

All times are specified in Local Standard Time (LST). Add 1 hour to adjust for Daylight Saving Time where and when it is observed.

SAINT JOHN A
NEW BRUNSWICK

45°18'58.000" N
65°53'24.000" W
108.80 m
8104901
71609
YSJ

Download Data

Hourly Data (October 2014)
Hourly Data Report for October 13, 2014
Temp Definition
°C
Dew Point Temp Definition
°C
Rel Hum Definition
%
Wind Dir Definition
10's deg

Wind Spd Definition
km/h
Visibility Definition
km
Stn Press Definition
kPa
Hmdx Definition


Wind Chill Definition


Weather Definition


TIME
00:00 Legend Double Dagger -0.3 -0.9 96 34 4 24.1 101.13   -2 LegendNANA
01:00 Legend Double Dagger -0.9 -1.5 96 11 4 24.1 101.12   -2 LegendNANA
02:00 Legend Double Dagger -1.3 -2.1 94 36 1 24.1 101.16   -2 Clear
03:00 Legend Double Dagger -1.5 -2.1 96 36 1 24.1 101.18   -2 LegendNANA
04:00 Legend Double Dagger -1.3 -1.7 97 3 3 24.1 101.22   -2 LegendNANA
05:00 Legend Double Dagger -1.8 -2.4 96 36 2 24.1 101.26   -3 Clear
06:00 Legend Double Dagger -2.0 -2.6 96   0 24.1 101.29     LegendNANA
07:00 Legend Double Dagger -2.3 -2.9 96 36 1 24.1 101.31   -3 LegendNANA
08:00 Legend Double Dagger 2.4 1.4 93 36 1 24.1 101.34     Clear
09:00 Legend Double Dagger 9.8 1.7 57 27 7 24.1 101.35     LegendNANA
10:00 Legend Double Dagger 12.6 1.0 45 24 17 24.1 101.37     LegendNANA
11:00 Legend Double Dagger 14.3 2.6 45 22 18 24.1 101.35     Clear
12:00 Legend Double Dagger 14.9 3.5 46 24 20 24.1 101.29     LegendNANA
13:00 Legend Double Dagger 15.7 5.4 50 21 23 24.1 101.22     LegendNANA
14:00 Legend Double Dagger 14.8 7.4 61 20 30 24.1 101.18     Clear
15:00 Legend Double Dagger 14.5 8.1 65 22 26 24.1 101.18     LegendNANA
16:00 Legend Double Dagger 13.9 9.0 72 22 30 24.1 101.17     LegendNANA
17:00 Legend Double Dagger 12.6 9.3 80 22 28 24.1 101.13     Clear
18:00 Legend Double Dagger 11.0 9.3 89 22 18 24.1 101.11     LegendNANA
19:00 Legend Double Dagger 10.4 8.8 90 21 18 24.1 101.14     LegendNANA
20:00 Legend Double Dagger 10.1 7.7 85 21 12 24.1 101.14     Clear
21:00 Legend Double Dagger 10.4 7.8 84 22 17 24.1 101.14     LegendNANA
22:00 Legend Double Dagger 10.0 8.9 93 22 12 24.1 101.14     LegendNANA
23:00 Legend Double Dagger 10.7 9.6 93 22 14 24.1 101.12     Mostly Cloudy

Notes on Data Quality.

Legend

  • E = Estimated
  • M = Missing
  • NA = Not Available
  • ‡ = Partner data that is not subject to review by the National Climate Archives
Date modified: